Overview Statistics Trail Chart Weather Telemetry Raw packets
 

This is the latest recevied weather packets stored in our database for station/object KA1JKB. If no packets are shown the sender has not sent any weather packets the latest 10 day(s).

<< 13 14 15 16 17 18 19 >>
Time Temp. Humidity Pressure Rain* Wind** Luminosity Snow
1788358166 28.33° C 82% 1013.2 hPa 0 mm - 475 W/m² -
1788357862 28.33° C 83% 1013.3 hPa 0 mm - 464 W/m² -
1788357561 27.78° C 83% 1013.3 hPa 0 mm - 470 W/m² -
1788357257 27.78° C 85% 1013.3 hPa 0 mm - 468 W/m² -
1788356956 27.78° C 84% 1013.1 hPa 0 mm - 445 W/m² -
1788356652 27.78° C 86% 1013.2 hPa 0 mm - 435 W/m² -
1788356347 27.78° C 88% 1013.3 hPa 0 mm - 387 W/m² -
1788356047 27.22° C 89% 1013.2 hPa 0 mm - 354 W/m² -
1788355742 26.67° C 89% 1013.2 hPa 0 mm - 340 W/m² -
1788355437 26.67° C 89% 1013.2 hPa 0 mm - 303 W/m² -
1788355132 26.67° C 90% 1013.2 hPa 0 mm - 296 W/m² -
1788354829 26.11° C 91% 1013.3 hPa 0 mm - 269 W/m² -
1788354528 26.11° C 92% 1013.3 hPa 0 mm - 114 W/m² -
1788354224 26.11° C 93% 1013.4 hPa 0 mm - 210 W/m² -
1788353919 25.56° C 93% 1013.4 hPa 0 mm - 223 W/m² -
1788353615 25.56° C 94% 1013.5 hPa 0 mm - 174 W/m² -
1788353311 25.56° C 95% 1013.4 hPa 0 mm - 176 W/m² -
1788353006 25° C 97% 1013.3 hPa 0 mm - 171 W/m² -
1788352701 24.44° C 98% 1013.3 hPa 0 mm - 109 W/m² -
1788352398 24.44° C 99% 1013.3 hPa 0 mm - 97 W/m² -
1788352096 23.89° C 99% 1013.3 hPa 0 mm - 83 W/m² -
1788351792 23.89° C 99% 1013.2 hPa 0 mm - 71 W/m² -
1788351492 23.33° C 99% 1013.2 hPa 0 mm - 65 W/m² -
1788351187 23.33° C 99% 1013.1 hPa 0 mm - 61 W/m² -
1788350882 23.33° C 99% 1013.3 hPa 0 mm - 56 W/m² -

* Rain latest hour (hover to see other rain measurements)
** Current wind speed in m/s (hover to see current wind gust speed)